This is the latest recevied weather packets stored in our database for station/object NI4CE-11. If no packets are shown the sender has not sent any weather packets the latest 10 day(s).
| Time | Temp. | Humidity | Pressure | Rain* | Wind** | Luminosity | Snow |
|---|---|---|---|---|---|---|---|
| 1778009087 | 32.22° C | 100% | 1014.6 hPa | 0 mm | - | - | - |
| 1778008787 | 32.78° C | 100% | 1014.6 hPa | 0 mm | - | - | - |
| 1778008487 | 31.67° C | 100% | 1014.8 hPa | 0 mm | - | - | - |
| 1778008391 | 30° C | 100% | 1014.8 hPa | 0 mm | - | - | - |
| 1778008256 | 30° C | 100% | 1014.8 hPa | 0 mm | - | - | - |
| 1778008187 | 30° C | 100% | 1014.8 hPa | 0 mm | - | - | - |
| 1778007940 | 30.56° C | 100% | 1014.9 hPa | 0 mm | - | - | - |
| 1778007887 | 30.56° C | 100% | 1014.9 hPa | 0 mm | - | - | - |
| 1778007587 | 30.56° C | 100% | 1015 hPa | 0 mm | - | - | - |
| 1778007287 | 30.56° C | 100% | 1015 hPa | 0 mm | - | - | - |
| 1778007051 | 31.67° C | 100% | 1015 hPa | 0 mm | - | - | - |
| 1778006987 | 31.67° C | 100% | 1015 hPa | 0 mm | - | - | - |
| 1778006687 | 31.11° C | 100% | 1014.9 hPa | 0 mm | - | - | - |
| 1778006434 | 32.78° C | 100% | 1015 hPa | 0 mm | - | - | - |
| 1778006387 | 32.78° C | 100% | 1015 hPa | 0 mm | - | - | - |
| 1778006153 | 31.11° C | 100% | 1015.1 hPa | 0 mm | - | - | - |
| 1778006087 | 31.11° C | 100% | 1015.1 hPa | 0 mm | - | - | - |
| 1778005834 | 29.44° C | 100% | 1015.2 hPa | 0 mm | - | - | - |
| 1778005787 | 29.44° C | 100% | 1015.2 hPa | 0 mm | - | - | - |
| 1778005487 | 32.22° C | 100% | 1015.3 hPa | 0 mm | - | - | - |
| 1778005251 | 30° C | 100% | 1015.4 hPa | 0 mm | - | - | - |
| 1778005187 | 30° C | 100% | 1015.4 hPa | 0 mm | - | - | - |
| 1778004959 | 32.22° C | 100% | 1015.3 hPa | 0 mm | - | - | - |
| 1778004887 | 32.22° C | 100% | 1015.3 hPa | 0 mm | - | - | - |
| 1778004588 | 32.22° C | 100% | 1015.5 hPa | 0 mm | - | - | - |
* Rain latest hour (hover to see other rain measurements)
** Current wind speed in m/s (hover to see current wind gust speed)